Regional Weather Roundup
Issued by NWS Wilmington, NC

Home | Current Version | Previous Version | Text Only | Print | Product List | Glossary On
Versions: 1 2 3 4 5 6 7 8 9 10 11 12 13 14 15 16 17 18 19 20 21 22 23 24 25 26 27
000
ASUS42 KILM 310613
RWRILM
RWRILM
REGIONAL HOURLY WEATHER ROUNDUP
NATIONAL WEATHER SERVICE WILMINGTON NC
200 AM EDT SAT JUL 31 2021

NOTE: "FAIR" INDICATES FEW OR NO CLOUDS BELOW 12,000 FEET WITH NO
SIGNIFICANT WEATHER AND/OR OBSTRUCTIONS TO VISIBILITY.

...............WFO WILMINGTON COUNTY WARNING AREA...............

......COASTAL NC AND SC COUNTIES......

CITY           SKY/WX    TMP DP  RH WIND       PRES   REMARKS
WILMINGTON     PTCLDY    82  78  88 SW7       29.92F HX  91
N MYRTLE BEACH CLEAR     82  77  84 SW9       29.93F HX  90
MYRTLE BEACH   PTCLDY    82  79  90 SW7       29.94F HX  92

......INLAND NC AND SC COUNTIES.......

CITY           SKY/WX    TMP DP  RH WIND       PRES   REMARKS
LUMBERTON      NOT AVBL
ELIZABETHTOWN  CLEAR     81  79  95 SW6       29.92F
WHITEVILLE     CLEAR     81  78  90 CALM      29.94S
FLORENCE       CLEAR     81  75  82 CALM      29.93F
DARLINGTON     CLEAR     76  76 100 CALM      29.93F
KINGSTREE      FAIR      79  77  94 CALM      29.93F
HARTSVILLE     FAIR      77  75  94 CALM      29.94S
BENNETTSVILLE  FAIR      75  75 100 CALM      29.93S FOG
CONWAY         FAIR      79  77  94 SW5       29.93F
GEORGETOWN     FAIR      79  79 100 SW6       29.95F
MARION         FAIR      79  79 100 SW5       29.93S

....................REST OF NORTH CAROLINA......................

.........EASTERN NC.........

CITY           SKY/WX    TMP DP  RH WIND       PRES   REMARKS
CAPE HATTERAS  PTCLDY    81  79  94 W9        29.91R HX  90
JACKSONVILLE   CLEAR     79  78  97 SW6       29.92F
MOREHEAD CITY  CLEAR     83  79  88 SW14      29.91S HX  94
KENANSVILLE    CLEAR     79  79 100 CALM      29.92S FOG
NEW BERN       CLEAR     79  78  97 SW6       29.92S
ELIZABETH CITY PTCLDY    76  71  85 N8        29.91F

.........CENTRAL NC.........

CITY           SKY/WX    TMP DP  RH WIND       PRES   REMARKS
RALEIGH DURHAM PTCLDY    79  68  69 CALM      29.93S
ROCKY MOUNT    CLEAR     77  74  90 CALM      29.90F FOG
ROANOKE RAPIDS NOT AVBL
FAYETTEVILLE   PTCLDY    80  76  87 SW6       29.91S
HOFFMAN        PTCLDY    77  77 100 CALM      29.90S

.........WESTERN NC.........

CITY           SKY/WX    TMP DP  RH WIND       PRES   REMARKS
CHARLOTTE      PTCLDY    75  73  93 N5        29.97S
GREENSBORO     MOCLDY    78  65  63 N6        29.97S
HICKORY        NOT AVBL
BOONE          NOT AVBL
ASHEVILLE      NOT AVBL

.....................REST OF SOUTH CAROLINA.....................

.........EASTERN SC.........

CITY           SKY/WX    TMP DP  RH WIND       PRES   REMARKS
CHARLESTON     PTCLDY    81  79  94 S7        29.94F HX  90
BEAUFORT MCAS  CLEAR     84  79  85 S6        29.96F HX  96
HILTON HEAD    CLEAR     84  79  84 CALM      29.97F HX  96

.........CENTRAL SC.........

CITY           SKY/WX    TMP DP  RH WIND       PRES   REMARKS
COLUMBIA       PTCLDY    80  76  87 CALM      29.93F
ORANGEBURG     CLEAR     79  77  94 CALM      29.95F
SUMTER SHAW    CLEAR     81  75  81 CALM      29.92F

.........WESTERN SC.........

CITY           SKY/WX    TMP DP  RH WIND       PRES   REMARKS
GREENVILLE     NOT AVBL
ROCK HILL      CLEAR     75  72  90 CALM      29.96F
ANDERSON       PTCLDY    77  76  96 CALM      29.97S
CLEMSON        NOT AVBL
GREENWOOD      PTCLDY    76  75  97 CALM      29.97F


...................COASTAL AND OFFSHORE REPORTS..................

................LOCAL PIERS AND NC RESERVE................


STATION/POSITION TIME  SKY/WX   TEMP    WIND        PRES    VSBY
                                AIR SEA DIR/SP/G
                 (UTC)          (F)     (DEG/KT/KT) (MB)    (MI)
JOHNY MRCER PIER 0530            83 82  220/ 11/ 14 1013.0F
NC RESRV MASNBRO NOT AVBL
OCEAN CREST PIER NOT AVBL
SPRINGMAID  PIER 0530            83                   N/A


................COASTAL AND OFFSHORE BUOYS................


STATION/POSITION TIME  SKY/WX   TEMP    WIND        PRES    VSBY
                                AIR SEA DIR/SP/G
                 (UTC)          (F)     (DEG/KT/KT) (MB)    (MI)
DIMNDSHOAL 41025 0550            82 82  240/ 19/ 23 1012.2F
CAPE LOOKOUT     0600            82     230/ 10/ 14 1013.3F
ONSLOW BAY 41036 NOT AVBL
ONSLOW BAY 41064 0508            83     200/ 16/ 21 1013.4R
ONSLOW BAY 41159 0526               83                N/A
WVE H/P(F/S)=  5/ 5

MASNBO INL 41110 0537               82                N/A
WVE H/P(F/S)=  3/ 5

WILM HARBR 41108 0500               83                N/A
WVE H/P(F/S)=  4/ 5

27SE WRITB 41037 0508            83 82  210/ 16/ 21 1013.3F
FRYING PAN 41013 0550            83 83  230/ 17/ 21 1013.7F
WVE H/P(F/S)=  4/ 5

SUNST NRSH 41024 0508            83 84  250/ 16/ 19 1015.0S
CAPRS NRSH 41029 NOT AVBL
EDISTO     41004 0550            83 83  210/ 16/ 19 1014.5F
WVE H/P(F/S)=  4/ 5



..........OFFSHORE BUOYS BEYOND 100 NM OFFSHORE...........
.....IN A TRIANGLE---HAT TO BERMUDA TO BAHAMAS TO HAT.....


STATION/POSITION TIME  SKY/WX   TEMP    WIND        PRES    VSBY
                                AIR SEA DIR/SP/G
                 (UTC)          (F)     (DEG/KT/KT) (MB)    (MI)
150E HAT   41001 0550            82 82  240/ 17/ 21 1013.9R
WVE H/P(F/S)=  7/ 7

W BERMUDA  41048 0600            82     230/ 17/ 23 1018.4
ATLANTIC S 41049 0600            82     150/  4/  6 1021.3
E BAHAMAS  41046 0550            83 83  100/ 12/ 14 1020.6F
WVE H/P(F/S)=  3/ 7 SWL H/P/D(F/S/D)=  2/120/ 7

NE BAHAMAS 41047 0550            82 84  180/ 12/ 14 1019.5F
WVE H/P(F/S)=  3/ 7 SWL H/P/D(F/S/D)=  2/120/ 7

120E CANVRL41010 0550            84 84  200/ 14/ 17 1017.7F

END



USA.gov is the U.S. government's official web portal to all federal, state and local government web resources and services.